When you browse on this site, cookies collect data to enhance your experience and personalize the content and advertising you see.
Visit our Privacy Policy to learn more. By continuing to use the site, you agree to this use of cookies and data.
  • In Germany
  • List of Countries
  • For 7 days
  • Water Temperature
  • Satellite Maps
  • Weather Map
  • Weather Widgets
  • user-avatar
    Login

    Hourly Weather Francistown

    Today, 12 December, Wednesday

    Time Temperature Precipitation Wind Pressure Humidity
    00:00 +19°C° 0 mm 3 mps 678 mmHg 73%
    01:00 +19°C° 0 mm 3 mps 678 mmHg 75%
    02:00 +19°C° 0 mm 3 mps 678 mmHg 76%
    03:00 +18°C° 0 mm 3 mps 677 mmHg 77%
    04:00 +18°C° 0 mm 3 mps 677 mmHg 78%
    05:00 +17°C° 0 mm 2 mps 677 mmHg 80%
    06:00 +19°C° 0 mm 3 mps 677 mmHg 70%
    07:00 +21°C° 0 mm 3 mps 678 mmHg 60%
    08:00 +24°C° 0 mm 3 mps 678 mmHg 50%
    09:00 +26°C° 0 mm 3 mps 679 mmHg 42%
    10:00 +28°C° 0 mm 3 mps 679 mmHg 34%
    11:00 +32°C° 0 mm 4 mps 679 mmHg 26%
    12:00 +33°C° 0 mm 4 mps 679 mmHg 22%
    13:00 +34°C° 0 mm 4 mps 678 mmHg 19%
    14:00 +35°C° 0 mm 4 mps 678 mmHg 16%
    15:00 +35°C° 0 mm 4 mps 677 mmHg 17%
    16:00 +34°C° 0 mm 4 mps 677 mmHg 17%
    17:00 +34°C° 0 mm 4 mps 677 mmHg 17%
    18:00 +31°C° 0 mm 3 mps 677 mmHg 21%
    19:00 +29°C° 0 mm 3 mps 677 mmHg 25%
    20:00 +27°C° 0 mm 3 mps 677 mmHg 29%
    21:00 +27°C° 0 mm 3 mps 677 mmHg 32%
    22:00 +26°C° 0 mm 3 mps 677 mmHg 34%
    23:00 +25°C° 0 mm 3 mps 678 mmHg 36%

    Tomorrow, 13 December, Thursday

    Time Temperature Precipitation Wind Pressure Humidity
    00:00 +25°C° 0 mm 3 mps 677 mmHg 37%
    01:00 +24°C° 0 mm 3 mps 677 mmHg 38%
    02:00 +24°C° 0 mm 3 mps 677 mmHg 39%
    03:00 +24°C° 0 mm 3 mps 677 mmHg 39%
    04:00 +22°C° 0 mm 3 mps 677 mmHg 39%
    05:00 +22°C° 0 mm 3 mps 677 mmHg 39%
    06:00 +25°C° 0 mm 3 mps 677 mmHg 34%
    07:00 +28°C° 0 mm 3 mps 678 mmHg 29%
    08:00 +30°C° 0 mm 3 mps 679 mmHg 25%
    09:00 +33°C° 0 mm 3 mps 679 mmHg 22%
    10:00 +35°C° 0 mm 3 mps 679 mmHg 19%
    11:00 +37°C° 0 mm 3 mps 680 mmHg 16%
    12:00 +38°C° 0 mm 4 mps 679 mmHg 15%
    13:00 +40°C° 0 mm 4 mps 679 mmHg 15%
    14:00 +41°C° 0 mm 5 mps 678 mmHg 15%
    15:00 +40°C° 0 mm 6 mps 678 mmHg 16%
    16:00 +39°C° 0 mm 6 mps 677 mmHg 17%
    17:00 +39°C° 0 mm 6 mps 677 mmHg 18%
    18:00 +36°C° 0 mm 5 mps 677 mmHg 21%
    19:00 +34°C° 0 mm 5 mps 677 mmHg 25%
    20:00 +32°C° 0 mm 4 mps 677 mmHg 28%
    21:00 +30°C° 0 mm 4 mps 678 mmHg 29%
    22:00 +30°C° 0 mm 4 mps 678 mmHg 30%
    23:00 +29°C° 0 mm 5 mps 679 mmHg 32%

    Day after tomorrow, 14 December, Friday

    Time Temperature Precipitation Wind Pressure Humidity
    00:00 +28°C° 0 mm 4 mps 678 mmHg 34%
    01:00 +28°C° 0 mm 4 mps 678 mmHg 36%
    02:00 +27°C° 0 mm 4 mps 677 mmHg 38%
    03:00 +26°C° 0 mm 4 mps 677 mmHg 40%
    04:00 +26°C° 0 mm 4 mps 677 mmHg 42%
    05:00 +25°C° 0 mm 3 mps 678 mmHg 44%
    06:00 +26°C° 0 mm 4 mps 678 mmHg 42%
    07:00 +28°C° 0 mm 5 mps 679 mmHg 40%
    08:00 +29°C° 0 mm 6 mps 680 mmHg 38%
    09:00 +32°C° 0 mm 6 mps 680 mmHg 34%
    10:00 +34°C° 0 mm 6 mps 680 mmHg 30%
    11:00 +35°C° 0 mm 6 mps 681 mmHg 25%
    12:00 +36°C° 0 mm 7 mps 680 mmHg 23%
    13:00 +38°C° 0 mm 7 mps 679 mmHg 21%
    14:00 +39°C° 0 mm 7 mps 679 mmHg 19%
    15:00 +38°C° 0 mm 7 mps 678 mmHg 20%
    16:00 +36°C° 0 mm 7 mps 678 mmHg 21%
    17:00 +37°C° 0 mm 8 mps 677 mmHg 22%
    18:00 +34°C° 0 mm 7 mps 678 mmHg 27%
    19:00 +32°C° 0 mm 6 mps 678 mmHg 31%
    20:00 +29°C° 0 mm 5 mps 678 mmHg 36%
    21:00 +28°C° 0 mm 5 mps 679 mmHg 41%
    22:00 +27°C° 0 mm 5 mps 679 mmHg 45%
    23:00 +27°C° 0 mm 5 mps 679 mmHg 50%

    15 December, Saturday

    Time Temperature Precipitation Wind Pressure Humidity
    00:00 +26°C° 0 mm 5 mps 678 mmHg 52%
    01:00 +25°C° 0 mm 4 mps 678 mmHg 54%
    02:00 +25°C° 0 mm 4 mps 678 mmHg 56%
    03:00 +23°C° 0 mm 4 mps 678 mmHg 58%
    04:00 +22°C° 0 mm 4 mps 678 mmHg 61%
    05:00 +22°C° 0 mm 4 mps 678 mmHg 63%
    06:00 +23°C° 0 mm 5 mps 679 mmHg 60%
    07:00 +25°C° 0 mm 5 mps 680 mmHg 57%
    08:00 +26°C° 0 mm 6 mps 680 mmHg 55%
    09:00 +28°C° 0 mm 6 mps 680 mmHg 46%
    10:00 +30°C° 0 mm 6 mps 680 mmHg 38%
    11:00 +34°C° 0 mm 6 mps 680 mmHg 30%
    12:00 +35°C° 0 mm 6 mps 680 mmHg 27%
    13:00 +36°C° 0 mm 6 mps 679 mmHg 24%
    14:00 +38°C° 0 mm 6 mps 678 mmHg 20%
    15:00 +36°C° 0 mm 6 mps 678 mmHg 21%
    16:00 +36°C° 0 mm 6 mps 677 mmHg 22%
    17:00 +35°C° 0 mm 6 mps 677 mmHg 23%
    18:00 +33°C° 0 mm 5 mps 677 mmHg 27%
    19:00 +30°C° 0 mm 5 mps 677 mmHg 30%
    20:00 +29°C° 0 mm 4 mps 677 mmHg 34%
    21:00 +28°C° 0 mm 4 mps 677 mmHg 37%
    22:00 +27°C° 0 mm 4 mps 678 mmHg 39%
    23:00 +26°C° 0 mm 3 mps 678 mmHg 42%

    16 December, Sunday

    Time Temperature Precipitation Wind Pressure Humidity
    00:00 +26°C° 0 mm 3 mps 677 mmHg 45%
    01:00 +25°C° 0 mm 3 mps 677 mmHg 48%
    02:00 +25°C° 0 mm 3 mps 677 mmHg 51%
    03:00 +24°C° 0 mm 3 mps 677 mmHg 53%
    04:00 +24°C° 0 mm 3 mps 677 mmHg 55%
    05:00 +24°C° 0 mm 3 mps 678 mmHg 57%
    06:00 +25°C° 0 mm 4 mps 678 mmHg 51%
    07:00 +27°C° 0 mm 5 mps 679 mmHg 46%
    08:00 +29°C° 0 mm 6 mps 680 mmHg 41%
    09:00 +32°C° 0 mm 6 mps 680 mmHg 37%
    10:00 +34°C° 0 mm 6 mps 679 mmHg 32%
    11:00 +35°C° 0 mm 5 mps 679 mmHg 27%
    12:00 +37°C° 0 mm 5 mps 679 mmHg 24%
    13:00 +39°C° 0 mm 5 mps 678 mmHg 20%
    14:00 +40°C° 0 mm 5 mps 678 mmHg 17%
    15:00 +39°C° 0 mm 6 mps 677 mmHg 17%
    16:00 +39°C° 0 mm 6 mps 677 mmHg 18%
    17:00 +38°C° 0 mm 7 mps 676 mmHg 18%
    18:00 +35°C° 0 mm 6 mps 677 mmHg 21%
    19:00 +33°C° 0 mm 5 mps 677 mmHg 24%
    20:00 +32°C° 0 mm 4 mps 677 mmHg 26%
    21:00 +30°C° 0 mm 4 mps 677 mmHg 29%
    22:00 +29°C° 0 mm 4 mps 678 mmHg 31%
    23:00 +28°C° 0 mm 4 mps 678 mmHg 33%

    17 December, Monday

    Time Temperature Precipitation Wind Pressure Humidity
    00:00 +27°C° 0 mm 4 mps 677 mmHg 36%
    01:00 +26°C° 0 mm 3 mps 677 mmHg 38%
    02:00 +26°C° 0 mm 3 mps 677 mmHg 41%
    03:00 +25°C° 0 mm 3 mps 677 mmHg 42%
    04:00 +24°C° 0 mm 3 mps 677 mmHg 42%
    05:00 +24°C° 0 mm 3 mps 677 mmHg 43%
    06:00 +26°C° 0 mm 4 mps 678 mmHg 39%
    07:00 +28°C° 0 mm 5 mps 679 mmHg 35%
    08:00 +30°C° 0 mm 6 mps 680 mmHg 31%
    09:00 +32°C° 0 mm 6 mps 680 mmHg 26%
    10:00 +34°C° 0 mm 6 mps 679 mmHg 22%
    11:00 +36°C° 0 mm 6 mps 679 mmHg 17%
    12:00 +38°C° 0 mm 6 mps 679 mmHg 16%
    13:00 +38°C° 0 mm 7 mps 678 mmHg 15%
    14:00 +39°C° 0 mm 7 mps 678 mmHg 13%
    15:00 +39°C° 0 mm 7 mps 677 mmHg 13%
    16:00 +38°C° 0 mm 7 mps 677 mmHg 14%
    17:00 +38°C° 0 mm 7 mps 676 mmHg 14%
    18:00 +35°C° 0 mm 6 mps 677 mmHg 17%
    19:00 +33°C° 0 mm 5 mps 677 mmHg 20%
    20:00 +30°C° 0 mm 4 mps 677 mmHg 23%
    21:00 +29°C° 0 mm 4 mps 677 mmHg 25%
    22:00 +28°C° 0 mm 4 mps 677 mmHg 27%
    23:00 +28°C° 0 mm 4 mps 678 mmHg 29%
    Show more